1032 visiteurs
Prévisions de votre ville :
Vigilance : 48 départements Mise à jour le 11/12/2019 à 16:10 - Voir la carte

Paris Roissy CDG (95380) le 11/12/2019 à 22:30 Choisir station

6°C 81 % OSO Vit. moyenne 19 kmh/h

Relevés météo quotidiens pour la station de :

UTC
S: Synop
M: Metar
Loc T°C
(°C)
Td
(°C)
HR
(%)
Vis
(km)
Néb
(octa)
Vent
(km/h)
Pression
(mb)
Précipitations
(mm)
Temps
              MOY
10 min
DIR RAF 1h MESURE VAR SUR 3h    
S 00 h 02h 20.4 14.7 70 20 - - - 4 1019.5 -0.1/3h 0.0/6h - 0.0/3h -
S 01 h 03h 19.7 14.5 72 20 - 2 4 1019.4 -0.1/3h 0.0/1h -
S 02 h 04h 18.8 14.3 75 20 - - - 9 1019.5 -0.1/3h 0.0/1h -
S 03 h 05h 18.0 14.1 78 20 - - - 2 1019.4 -0.3/3h 0.0/3h -
S 04 h 06h 17.1 14.0 82 20 - - - 2 1019.3 -0.4/3h 0.0/1h -
S 05 h 07h 17.5 14.6 83 20 - - - 6 1019.2 -0.4/3h 0.0/1h -
S 06 h 08h 22.3 16.1 68 19 - 7 13 1018.5 -0.4/3h 0.0/12h - 0.0/3h - 0.0/24h -
S 07 h 09h 25.8 15.5 53 20 - 6 11 1018.0 -0.4/3h 0.0/1h -
S 08 h 10h 28.7 15.9 46 19 - 9 15 1017.5 -0.6/3h 0.0/1h -
S 09 h 11h 32.2 15.2 36 20 - 2 6 1017.0 -0.6/3h 0.0/3h -
S 10 h 12h 33.7 15.7 34 20 - 4 7 1016.3 -0.9/3h 0.0/1h -
S 11 h 13h 35.9 15.1 29 19 - 7 19 1015.7 -1.1/3h 0.0/1h -
S 12 h 14h 37.7 13.0 23 19 - 6 17 1014.8 -1.7/3h 0.0/6h - 0.0/3h -
S 13 h 15h 38.7 10.1 18 20 - 6 17 1014.3 -1.6/3h 0.0/1h -
S 14 h 16h 39.3 6.9 14 20 - 7 19 1013.8 -1.7/3h 0.0/1h -
S 15 h 17h 39.9 7.4 14 19 - 11 20 1013.2 -1.4/3h 0.0/3h -
S 16 h 18h 39.7 7.2 14 18 - 6 19 1012.7 -1.5/3h 0.0/1h -
S 17 h 19h 38.3 6.1 14 20 - 6 9 1012.5 -1.3/3h 0.0/1h -
S 18 h 20h 34.6 11.1 24 1.1 - - - 13 1013.0 -0.6/3h 0.0/12h - 0.0/3h -
S 19 h 21h 31.9 12.7 31 19 - 2 6 1013.0 -0.3/3h 0.0/1h -
S 20 h 22h 28.7 14.9 43 2 - 2 4 1013.3 0.0/3h 0.0/1h -
S 21 h 23h 27.1 14.5 46 5 - - - 4 1013.8 +0.1/3h 0.0/3h -
S 22 h 00h 24.5 14.9 55 20 - 4 6 1014.5 +0.8/3h 0.0/1h -
S 23 h 01h 23.3 15.1 60 20 - 4 7 1014.7 +0.9/3h 0.0/1h -
evolution des temperatures
cumul des precipitations
vent moyen et rafales
pression atmospherique

Un tiret (-) signifie que les données ne sont pas disponibles.

Passez la souris sur les pictos temps pour avoir plus de précisions. Passez les flèches sur l'icône de la direction du vent pour voir la direction précise en degrés.

Les données de l'heure en cours sont disponibles à partir de H+15 minutes.


S signifie station Synop, plus complète qu'une station Metar (M). Il y a +1h de différence entre l'heure UTC et l'heure légale en hiver et +2h en été.

Td est la mesure du point de rosée.

HR est l'humidité relative/p>

Vis est la visibilité

Néb est la nébulosité du ciel (couverture nuageuse) exprimée en octas (de 0/8 à 8/8).

Vent moy 10 min donne le vent moyen sur les 10 minutes qui précèdent le relevé.

Vent raf 1h donne la rafale maximale mesurée dans l'heure qui précède le relevé.


Les données les plus anciennes remontent à avril 2014.

Les données présentées sur cette page proviennent des stations météo officielles. Les relevés sont effectués aux normes en vigueur (anémomètre à 10m de haut, thermomètre sous abri normalisé à 2m du sol...)

Météo 60 décline toute responsabilité en cas d'absence de données, d'erreurs, de mauvaise utilisation ou interprétation et n'est pas habilité à fournir des certificats intempéries.